[[{"header":{"parameterUnit":"m.s-1","parameterCategory":1,"la1":30.2991,"la2":30.254,"lo1":-89.0895,"lo2":-89.0444,"dy":0.0017,"dx":0.0017,"nx":28,"ny":28,"refTime":"2023-08-16T03:00:00:Z","depth":0,"parameterNumber":2,"parameterNumberName":"U-component_of_WINDS"},"data":[0,0,0,0,0,0,0,0,0,0,0,0,0,0,0,0,0,0,0,0,0,0,0,0,0,0,0,0,0,0,0,0,0,0,0,0,0,0,0,0,0,0,0,0,0,0,0,0,0,0,0,0,0,0,0,0,0,0,0.9578,0.9579,0,0.9681,0.9682,0.9683,0.9744,0.9744,0.9744,0.9745,0.9852,0.9854,0.9857,0,0,0,0,0,0,0,0,0,0,0,0,0,0.9438,0.944,0.9578,0.9579,0.958,0.968,0.9682,0.9683,0.9744,0.9744,0.9744,0.9745,0.9851,0.9854,0.9857,0,0,0,0,0,0,0,0,0,0,0,0,0,0.9515,0.9441,0.9578,0.9623,0.9628,0.968,0.9682,0.9684,0.9744,0.9744,0.9745,0.9745,0.985,0.9854,0.9857,0.9873,0,0,0.9869,0.9871,0,0,0,0,0,0,0,0,0.9511,0.952,0.9615,0.962,0.9625,0.97,0.9672,0.9747,0.9744,0.97,0.9745,0.9745,0.9801,0.9809,0.9827,0.9878,0.9883,0.987,0.9872,0.9874,0.9875,0,0,0,0,0,0,0,0.9505,0.9516,0.9619,0.9616,0.9623,0.9639,0.965,0.9686,0.9747,0.9704,0.9708,0.972,0.9804,0.9823,0.983,0.9885,0.987,0.9873,0.9875,0.9877,0.9956,0.9956,0,0,0,0,0,0,0.9492,0.9511,0.9615,0.9622,0.9568,0.9641,0.9654,0.9676,0.9747,0.9758,0.9719,0.9722,0.9817,0.9826,0.9834,0.9859,0.9874,0.9877,0.988,0.9957,0.9956,0.9956,0,0,0,0,0,0,0.9489,0.9501,0.9611,0.9568,0.9583,0.9643,0.9667,0.9677,0.9697,0.9758,0.977,0.9727,0.9817,0.9829,0.9864,0.9863,0.9879,0.9883,0.9957,0.9957,0.9956,0.9907,0,0,0,0,0,0,0.9485,0.9499,0.9505,0.9567,0.9585,0.9637,0.9667,0.9679,0.9703,0.9708,0.9769,0.978,0.9818,0.9857,0.9867,0.9869,0.9886,0.9957,0.9957,0.9956,0.9909,0.9905,0.9902,0,0,0,0,0,0.948,0.9487,0.9505,0.9517,0.9593,0.9637,0.9648,0.9691,0.9703,0.971,0.975,0.9778,0.9862,0.986,0.9872,0.9875,0.9957,0.9957,0.9956,0.991,0.9906,0.9902,0,0,0,0,0,0,0.9423,0.9496,0.9517,0.9544,0.9584,0.9647,0.9657,0.9684,0.9722,0.9725,0.9778,0.9792,0.9822,0.9852,0.9849,0.9895,0.9913,0.9915,0.9874,0.987,0.9866,0.9858,0.9889,0,0,0,0,0,0.9414,0.9443,0.9505,0.9524,0.9543,0.9596,0.9617,0.9648,0.9691,0.9708,0.9751,0.9792,0.9829,0.9851,0.9888,0.9914,0.9929,0.9922,0.9918,0.9915,0.9916,0.9933,0.9931,0.9955,0.9955,0.9955,0,0,0.9395,0.9438,0.9453,0.9514,0.9548,0.9578,0.961,0.964,0.9663,0.9713,0.9748,0.9781,0.9832,0.9863,0.9878,0.9889,0.9913,0.9914,0.9911,0.9914,0.9933,0.993,0.9928,0.9954,0.9954,0.9954,0,0,0.9376,0.9411,0.9431,0.9465,0.9517,0.9553,0.9558,0.9618,0.9641,0.9678,0.9717,0.9746,0.9806,0.9841,0.9866,0.9863,0.9891,0.9874,0.9854,0.9871,0.9869,0.9868,0.9867,0.9866,0.9874,0.9874,0.9874,0,0.9346,0.9391,0.9438,0.9466,0.9492,0.9539,0.9561,0.9592,0.9653,0.967,0.9681,0.9759,0.9797,0.9837,0.9836,0.9855,0.9864,0.9866,0.9866,0.9865,0.9864,0.9864,0.9864,0.9872,0.9872,0.9872,0.9873,0,0.9352,0.9383,0.9393,0.9451,0.9479,0.9503,0.9555,0.9577,0.9606,0.9641,0.9679,0.9726,0.9773,0.9785,0.9813,0.983,0.9835,0.9855,0.9874,0.9859,0.986,0.986,0.9868,0.9869,0.987,0.9871,0,0,0.9298,0.9383,0.9386,0.9413,0.9475,0.9501,0.9529,0.9575,0.9593,0.9635,0.966,0.9711,0.9731,0.976,0.9793,0.9807,0.9803,0.9826,0.9828,0.982,0.9825,0.981,0.9809,0.9822,0.9822,0.9822,0.9821,0,0.9287,0.9338,0.9382,0.9417,0.9448,0.9495,0.9519,0.956,0.9595,0.9627,0.9665,0.9701,0.9723,0.9742,0.9758,0.9799,0.9804,0.98,0.9847,0.9848,0.9832,0.9809,0.9792,0.9789,0.9822,0.9822,0.9822,0,0.9281,0.9321,0.9359,0.942,0.9434,0.9455,0.9502,0.9531,0.958,0.9604,0.9638,0.9673,0.9706,0.9722,0.9769,0.9765,0.9787,0.981,0.9811,0.9817,0.9833,0.9814,0.9789,0.9788,0.9823,0.9823,0.9823,0,0.9238,0.9301,0.9332,0.9355,0.9426,0.944,0.9471,0.952,0.9546,0.9587,0.9605,0.965,0.9674,0.9709,0.9756,0.9763,0.9798,0.9818,0.982,0.9818,0.9824,0.9823,0.9801,0.9839,0.9839,0.9839,0.9839,0,0.9221,0.9243,0.9314,0.9333,0.9359,0.9411,0.9436,0.9471,0.9515,0.9543,0.9587,0.9612,0.9672,0.9706,0.9743,0.9776,0.9787,0.9808,0.9818,0.9804,0.9801,0.9819,0.982,0.9839,0.9839,0.9839,0.9839,0,0.9176,0.9225,0.9262,0.9328,0.9345,0.9361,0.9418,0.9439,0.9477,0.9512,0.9523,0.9583,0.9624,0.9675,0.9732,0.9758,0.9788,0.9802,0.9771,0.9776,0.9775,0.9774,0.9764,0.9765,0.9801,0.9801,0.98,0,0.9162,0.918,0.9248,0.9269,0.9299,0.9333,0.936,0.9413,0.9439,0.9497,0.9511,0.9556,0.9595,0.9659,0.9708,0.9753,0.9769,0.9762,0.9776,0.9762,0.9769,0.9767,0.977,0.9758,0.9757,0.9757,0.9756,0,0.9131,0.9155,0.9192,0.9238,0.9268,0.9307,0.9347,0.9363,0.9425,0.9452,0.9495,0.9525,0.9585,0.9629,0.968,0.9713,0.9745,0.9752,0.9755,0.9741,0.9722,0.9732,0.9761,0.9752,0.9752,0.9753,0.9753,0.9753,0.9101,0.912,0.9171,0.9211,0.9248,0.9285,0.9308,0.935,0.9387,0.9439,0.9469,0.9511,0.9562,0.9634,0.9666,0.9701,0.9712,0.9716,0.9717,0.9717,0.9713,0.9717,0.9711,0.9711,0.9711,0.9711,0.9711,0,0.9073,0.9109,0.9145,0.9201,0.9233,0.9261,0.9308,0.9333,0.937,0.9414,0.9452,0.9502,0.9546,0.9599,0.9647,0.9665,0.9681,0.9676,0.9675,0.9682,0.97,0.9693,0.9662,0.9662,0.9662,0.9662,0.9662,0.9662,0.9062,0.9095,0.9126,0.9178,0.9215,0.9256,0.9281,0.9316,0.9352,0.9406,0.9443,0.9478,0.9527,0.9579,0.9621,0.9636,0.9651,0.9641,0.966,0.9676,0.968,0.9684,0.9678,0.9644,0.9644,0.9639,0.9639,0.9639]},{"header":{"parameterUnit":"m.s-1","parameterCategory":1,"la1":30.2991,"la2":30.254,"lo1":-89.0895,"lo2":-89.0444,"dy":0.0017,"dx":0.0017,"nx":28,"ny":28,"refTime":"2023-08-16T03:00:00:Z","depth":0,"parameterNumber":3,"parameterNumberName":"V-component_of_WINDS"},"data":[0,0,0,0,0,0,0,0,0,0,0,0,0,0,0,0,0,0,0,0,0,0,0,0,0,0,0,0,0,0,0,0,0,0,0,0,0,0,0,0,0,0,0,0,0,0,0,0,0,0,0,0,0,0,0,0,0,0,3.3311,3.3313,0,3.3442,3.3444,3.3445,3.3507,3.3507,3.3507,3.3507,3.3633,3.3637,3.364,0,0,0,0,0,0,0,0,0,0,0,0,0,3.3105,3.3108,3.3311,3.3313,3.3314,3.3442,3.3444,3.3446,3.3507,3.3507,3.3507,3.3507,3.3632,3.3636,3.364,0,0,0,0,0,0,0,0,0,0,0,0,0,3.3211,3.3109,3.3311,3.3361,3.3366,3.3442,3.3444,3.3446,3.3507,3.3507,3.3507,3.3507,3.3631,3.3636,3.3641,3.3674,0,0,3.3657,3.3659,0,0,0,0,0,0,0,0,3.3205,3.3218,3.3352,3.3357,3.3364,3.3459,3.3418,3.3522,3.3507,3.3453,3.3507,3.3507,3.3575,3.3584,3.3609,3.368,3.3686,3.3657,3.366,3.3662,3.3664,0,0,0,0,0,0,0,3.3197,3.3213,3.3363,3.3353,3.3361,3.3373,3.3388,3.3438,3.3513,3.3458,3.3463,3.3478,3.3578,3.3604,3.3612,3.3688,3.3657,3.3662,3.3665,3.3667,3.3791,3.3791,0,0,0,0,0,0,3.3183,3.3206,3.3359,3.3367,3.3283,3.3377,3.3394,3.3428,3.3512,3.3525,3.3478,3.348,3.3595,3.3606,3.3617,3.3662,3.3662,3.3667,3.367,3.3791,3.3791,3.3791,0,0,0,0,0,0,3.3178,3.3196,3.3353,3.3288,3.3309,3.3381,3.3419,3.3431,3.3457,3.3528,3.354,3.3491,3.3596,3.361,3.366,3.3667,3.367,3.3674,3.379,3.3791,3.3791,3.375,0,0,0,0,0,0,3.3172,3.3194,3.321,3.3288,3.3312,3.3397,3.3419,3.3433,3.3467,3.3471,3.3544,3.3555,3.3597,3.3652,3.3665,3.3674,3.3678,3.379,3.379,3.3791,3.3752,3.3749,3.3748,0,0,0,0,0,3.3165,3.3191,3.321,3.3228,3.3334,3.3397,3.341,3.346,3.3467,3.3482,3.3527,3.3553,3.3664,3.3657,3.3672,3.3682,3.379,3.379,3.3791,3.3752,3.375,3.3748,0,0,0,0,0,0,3.311,3.3203,3.3224,3.3278,3.3329,3.3407,3.3428,3.3456,3.3504,3.3506,3.3562,3.3578,3.3623,3.3657,3.3648,3.3718,3.3729,3.3732,3.3694,3.3693,3.3691,3.3682,3.3682,0,0,0,0,0,3.3104,3.3151,3.3228,3.3268,3.3293,3.3355,3.3385,3.3418,3.3473,3.3494,3.3543,3.3592,3.3638,3.3667,3.3713,3.3756,3.3772,3.377,3.3768,3.3766,3.3769,3.3793,3.3793,3.3793,3.3793,3.3793,0,0,3.3093,3.3149,3.3175,3.3258,3.3302,3.3346,3.3373,3.3419,3.3451,3.35,3.3551,3.3588,3.3646,3.3693,3.3716,3.3723,3.3772,3.3767,3.3765,3.3769,3.3794,3.3794,3.3794,3.3793,3.3793,3.3793,0,0,3.3095,3.3143,3.3181,3.3225,3.3291,3.3332,3.3341,3.3415,3.3442,3.3495,3.3532,3.3569,3.3647,3.3687,3.3718,3.3733,3.3758,3.3745,3.3735,3.3758,3.3758,3.3759,3.3764,3.3765,3.3748,3.3748,3.3747,0,3.3072,3.3143,3.3196,3.3241,3.3275,3.3323,3.3361,3.3399,3.3475,3.3497,3.3504,3.3603,3.3646,3.3702,3.3706,3.3729,3.3739,3.3738,3.3755,3.3755,3.3756,3.3762,3.3763,3.3746,3.3746,3.3746,3.3746,0,3.3111,3.3159,3.3181,3.3257,3.3293,3.3334,3.3391,3.3421,3.345,3.349,3.3541,3.3594,3.3651,3.3666,3.3695,3.3726,3.3729,3.3744,3.3757,3.3754,3.376,3.3762,3.3743,3.3744,3.3744,3.3745,0,0,3.3084,3.3188,3.3196,3.323,3.3306,3.3343,3.3383,3.3442,3.3466,3.3516,3.3551,3.3615,3.363,3.3664,3.3697,3.3717,3.3725,3.373,3.3732,3.3728,3.3761,3.375,3.3751,3.3741,3.3742,3.3742,3.3756,0,3.3097,3.3176,3.3225,3.3283,3.3327,3.3372,3.3407,3.3455,3.3492,3.3533,3.3572,3.3617,3.3634,3.3655,3.3677,3.3719,3.3732,3.3719,3.3772,3.3773,3.3758,3.3755,3.3743,3.3754,3.3759,3.3759,3.376,0,3.3124,3.3175,3.3239,3.3309,3.3329,3.336,3.3417,3.3455,3.351,3.3535,3.3573,3.3606,3.3648,3.3655,3.3713,3.3702,3.3727,3.375,3.3752,3.3759,3.3767,3.3762,3.3758,3.376,3.3764,3.3764,3.3763,0,3.3098,3.3183,3.3232,3.326,3.3343,3.3363,3.3398,3.3453,3.3484,3.3532,3.3553,3.3604,3.3632,3.3669,3.3714,3.3716,3.3766,3.3778,3.3787,3.3786,3.3797,3.3796,3.3797,3.3811,3.3811,3.3811,3.3811,0,3.3108,3.3145,3.3222,3.3252,3.3293,3.3347,3.3385,3.3423,3.3471,3.3507,3.3547,3.358,3.3637,3.3675,3.3709,3.3751,3.3763,3.3783,3.3792,3.3781,3.3778,3.3798,3.3799,3.3811,3.3811,3.3811,3.3811,0,3.3087,3.314,3.3197,3.327,3.329,3.3317,3.3379,3.3408,3.3447,3.3492,3.3505,3.3565,3.3612,3.366,3.3723,3.3746,3.3787,3.3798,3.3769,3.3774,3.3781,3.378,3.3796,3.3801,3.381,3.381,3.381,0,3.3091,3.3121,3.3198,3.3226,3.3261,3.3306,3.3339,3.3391,3.3422,3.3486,3.3507,3.3557,3.3601,3.3673,3.3721,3.3768,3.3782,3.3784,3.3789,3.3776,3.3782,3.3781,3.3783,3.3783,3.3782,3.3782,3.3782,0,3.3092,3.3116,3.3164,3.3219,3.3258,3.3303,3.335,3.337,3.3431,3.3464,3.3514,3.3548,3.3612,3.3661,3.3715,3.3747,3.3774,3.378,3.3784,3.3773,3.3755,3.3765,3.3765,3.3779,3.378,3.378,3.378,3.378,3.3084,3.3112,3.3171,3.3222,3.3262,3.3305,3.3336,3.3379,3.3423,3.3482,3.3508,3.3558,3.3609,3.3684,3.3716,3.3754,3.3761,3.3768,3.377,3.3771,3.3768,3.3748,3.3763,3.3763,3.3763,3.3763,3.3764,0,3.3087,3.3127,3.3173,3.3238,3.3277,3.3301,3.3353,3.3383,3.3428,3.3474,3.3517,3.3573,3.362,3.3671,3.372,3.374,3.3754,3.3752,3.3751,3.3758,3.3758,3.375,3.374,3.374,3.374,3.374,3.374,3.374,3.3093,3.3143,3.3173,3.3242,3.3281,3.3332,3.336,3.3398,3.3436,3.3498,3.3538,3.3572,3.3619,3.3672,3.3716,3.3729,3.3745,3.374,3.3756,3.3756,3.3758,3.376,3.3752,3.3743,3.3743,3.3753,3.3753,3.3753]}]]